Franklin, NC

4:10 PM EST on December 11, 2019 (GMT -0500)
Franklin

Weather History for K1A5 - November, 2019

Change the Weather History Date:

Tuesday, November 19, 2019

  Actual Average (KTOC) Record (KTOC)
Temperature  
Mean Temperature 44 °F -  
Max Temperature 55 °F 63 °F 74 °F (2015)
Min Temperature 34 °F 41 °F 21 °F (2014)
Degree Days  
Heating Degree Days 21    
Moisture  
Dew Point 33 °F    
Average Humidity 70    
Maximum Humidity 93    
Minimum Humidity 34    
Precipitation  
Precipitation 0.00 in - - ()
Sea Level Pressure  
Sea Level Pressure 29.88 in    
Wind  
Wind Speed 1 mph ()    
Max Wind Speed 6 mph    
Max Gust Speed -    
Visibility 10.0 miles    
Events      
Averages and records for this station are not official NWS values.
T = Trace of Precipitation, MM = Missing Value Source: Averaged Metar Reports

Daily Weather History Graph

Daily Weather History Graph

Search for Another Location

Airport or City:

Astronomy

Nov. 19, 2019 Rise Set
Actual Time 7:12 AM EST 5:25 PM EST
Civil Twilight 6:45 AM EST 5:52 PM EST
Nautical Twilight 6:14 AM EST 6:23 PM EST
Astronomical Twilight 5:44 AM EST 6:53 PM EST
Moon No Moon Rise 1:23 PM EST (11/19)
Length of Visible Light 11h 07m
Length of Day
10h 13m
Waning Gibbous, 52% of the Moon is Illuminated
Nov 19
Waning Gibbous
Nov 19
Last Quarter
Nov 26
New
Dec 4
First Quarter
Dec 12
Full

Hourly Weather History & Observations

Time (EST) Temp. Windchill Dew Point Humidity Pressure Visibility Wind Dir Wind Speed Gust Speed Precip Events Conditions
12:15 AM 34.9 °F - 32.0 °F 89% 29.83 in 10.0 mi Calm Calm - N/A   Clear
12:35 AM 35.1 °F - 32.0 °F 89% 29.82 in 10.0 mi Calm Calm - N/A   Clear
12:55 AM 35.8 °F - 32.2 °F 87% 29.82 in 10.0 mi Calm Calm - N/A   Clear
1:15 AM 35.4 °F - 32.5 °F 89% 29.82 in 10.0 mi Calm Calm - N/A   Clear
1:35 AM 34.7 °F - 32.0 °F 90% 29.81 in 10.0 mi Calm Calm - N/A   Clear
2:35 AM 35.4 °F - 32.5 °F 89% 29.81 in 10.0 mi Calm Calm - N/A   Clear
2:55 AM 34.9 °F - 32.7 °F 92% 29.81 in 10.0 mi Calm Calm - N/A   Clear
3:15 AM 34.7 °F - 32.7 °F 92% 29.82 in 10.0 mi Calm Calm - N/A   Clear
3:35 AM 34.7 °F - 32.9 °F 93% 29.82 in 10.0 mi Calm Calm - N/A   Clear
3:55 AM 35.2 °F - 32.9 °F 91% 29.83 in 10.0 mi Calm Calm - N/A   Scattered Clouds
4:15 AM 35.6 °F - 33.1 °F 91% 29.83 in 10.0 mi Calm Calm - N/A   Mostly Cloudy
4:35 AM 35.8 °F - 33.3 °F 91% 29.84 in 10.0 mi Calm Calm - N/A   Mostly Cloudy
4:55 AM 35.8 °F - 33.8 °F 92% 29.83 in 10.0 mi Calm Calm - N/A   Overcast
5:15 AM 36.1 °F - 33.8 °F 91% 29.84 in 10.0 mi Calm Calm - N/A   Overcast
5:35 AM 36.5 °F - 33.8 °F 90% 29.83 in 10.0 mi Calm Calm - N/A   Overcast
5:55 AM 37.4 °F - 34.5 °F 89% 29.83 in 10.0 mi Calm Calm - N/A   Overcast
6:15 AM 37.6 °F 34.0 °F 34.3 °F 88% 29.83 in 10.0 mi West 4.6 mph - N/A   Overcast
6:35 AM 38.3 °F - 34.7 °F 87% 29.83 in 10.0 mi Calm Calm - N/A   Overcast
7:15 AM 41.7 °F 38.8 °F 33.3 °F 72% 29.85 in 10.0 mi WNW 4.6 mph - N/A   Scattered Clouds
7:35 AM 41.7 °F 38.8 °F 33.3 °F 72% 29.86 in 10.0 mi NW 4.6 mph - N/A   Clear
7:55 AM 41.4 °F 37.6 °F 33.6 °F 74% 29.87 in 10.0 mi West 5.8 mph - N/A   Mostly Cloudy
8:35 AM 42.1 °F 39.2 °F 33.4 °F 71% 29.88 in 10.0 mi NW 4.6 mph - N/A   Scattered Clouds
8:55 AM 42.4 °F 40.7 °F 33.3 °F 70% 29.88 in 10.0 mi WNW 3.5 mph - N/A   Scattered Clouds
9:15 AM 43.5 °F - 33.3 °F 67% 29.88 in 10.0 mi Calm Calm - N/A   Mostly Cloudy
9:35 AM 44.1 °F - 33.4 °F 66% 29.88 in 10.0 mi Calm Calm - N/A   Overcast
9:55 AM 45.3 °F 43.0 °F 33.3 °F 63% 29.88 in 10.0 mi NW 4.6 mph - N/A   Overcast
10:15 AM 45.5 °F - 33.6 °F 63% 29.88 in 10.0 mi Calm Calm - N/A   Overcast
10:35 AM 46.2 °F - 33.6 °F 61% 29.89 in 10.0 mi Calm Calm - N/A   Mostly Cloudy
10:55 AM 47.7 °F - 32.7 °F 56% 29.88 in 10.0 mi North 3.5 mph - N/A   Mostly Cloudy
11:15 AM 48.7 °F - 32.9 °F 54% 29.88 in 10.0 mi Calm Calm - N/A   Overcast
11:35 AM 50.4 °F - 34.0 °F 53% 29.89 in 10.0 mi West 3.5 mph - N/A   Mostly Cloudy
11:55 AM 49.6 °F - 32.9 °F 53% 29.89 in 10.0 mi Calm Calm - N/A   Mostly Cloudy
12:15 PM 50.4 °F - 31.3 °F 48% 29.88 in 10.0 mi Calm Calm - N/A   Overcast
12:35 PM 51.8 °F - 28.2 °F 40% 29.88 in 10.0 mi NNE 3.5 mph - N/A   Overcast
12:55 PM 52.5 °F - 27.7 °F 38% 29.87 in 10.0 mi NNW 4.6 mph - N/A   Overcast
1:15 PM 51.8 °F - 26.4 °F 37% 29.87 in 10.0 mi Calm Calm - N/A   Overcast
1:35 PM 52.3 °F - 25.9 °F 36% 29.86 in 10.0 mi NNW 3.5 mph - N/A   Overcast
1:55 PM 52.7 °F - 25.2 °F 34% 29.86 in 10.0 mi North 5.8 mph - N/A   Overcast
2:15 PM 52.2 °F - 25.0 °F 35% 29.86 in 10.0 mi North 4.6 mph - N/A   Overcast
2:35 PM 52.3 °F - 27.1 °F 38% 29.85 in 10.0 mi North 3.5 mph - N/A   Overcast
2:55 PM 52.7 °F - 28.0 °F 39% 29.84 in 10.0 mi NNE 5.8 mph - N/A   Overcast
3:15 PM 54.7 °F - 29.5 °F 38% 29.84 in 10.0 mi ENE 3.5 mph - N/A   Overcast
3:55 PM 52.3 °F - 32.0 °F 46% 29.86 in 10.0 mi NNW 4.6 mph - N/A   Overcast
4:15 PM 52.0 °F - 32.0 °F 47% 29.87 in 10.0 mi North 4.6 mph - N/A   Overcast
4:35 PM 51.4 °F - 32.0 °F 47% 29.87 in 10.0 mi Calm Calm - N/A   Overcast
4:55 PM 51.1 °F - 32.5 °F 49% 29.89 in 10.0 mi Calm Calm - N/A   Overcast
5:35 PM 50.2 °F - 33.6 °F 53% 29.90 in 10.0 mi Calm Calm - N/A   Overcast
5:55 PM 48.6 °F - 35.8 °F 61% 29.90 in 10.0 mi Calm Calm - N/A   Overcast
6:15 PM 47.3 °F - 36.3 °F 66% 29.91 in 10.0 mi Calm Calm - N/A   Overcast
6:35 PM 46.8 °F - 37.2 °F 69% 29.92 in 10.0 mi Calm Calm - N/A   Overcast
6:55 PM 45.0 °F - 36.1 °F 71% 29.92 in 10.0 mi Calm Calm - N/A   Overcast
7:15 PM 43.5 °F - 35.1 °F 72% 29.93 in 10.0 mi Calm Calm - N/A   Overcast
7:35 PM 41.4 °F - 35.4 °F 79% 29.93 in 10.0 mi Calm Calm - N/A   Mostly Cloudy
7:55 PM 40.1 °F - 35.1 °F 82% 29.93 in 10.0 mi Calm Calm - N/A   Mostly Cloudy
8:15 PM 37.6 °F - 33.8 °F 86% 29.94 in 10.0 mi Calm Calm - N/A   Scattered Clouds
8:55 PM 38.7 °F - 35.2 °F 87% 29.94 in 10.0 mi Calm Calm - N/A   Overcast
9:35 PM 41.2 °F - 36.1 °F 82% 29.95 in 10.0 mi Calm Calm - N/A   Overcast
9:55 PM 41.4 °F - 37.0 °F 85% 29.96 in 10.0 mi Calm Calm - N/A   Overcast
10:15 PM 41.2 °F - 36.5 °F 83% 29.96 in 10.0 mi Calm Calm - N/A   Overcast
10:35 PM 40.3 °F - 36.9 °F 88% 29.96 in 10.0 mi Calm Calm - N/A   Overcast
10:55 PM 39.9 °F - 36.5 °F 88% 29.96 in 10.0 mi Calm Calm - N/A   Mostly Cloudy
11:35 PM 40.1 °F - 35.8 °F 85% 29.96 in 10.0 mi Calm Calm - N/A   Overcast
11:55 PM 48.7 °F - 37.2 °F 64% 29.96 in 10.0 mi WNW 3.5 mph - N/A   Overcast